{"data":{"norad_id":59808,"intl_designator":"2024-094D","name":"2024-094D","alt_names":[],"object_type":"PAYLOAD","status":"ACTIVE","operator":null,"country":"PRC","launch_date":"2024-05-20","launch_site_code":"TAISC","launch_vehicle":null,"mission":null,"orbit_class":"UNKNOWN","rcs_meters":null,"size_class":null,"mass_kg":null,"dimensions":null,"purposes":[],"wikipedia_slug":null,"has_3d_model":false,"image_url":null,"decayed_at":null,"tle_current":{"epoch":"2026-05-25T05:18:48.305952Z","epoch_age_seconds":59872,"freshness":"FRESH","line1":"1 59808U 24094D   26145.22139243  .00006256  00000+0  32294-3 0  9994","line2":"2 59808  97.3848 216.4032 0002108 331.5599  28.5519 15.16660029111677","mean_motion":15.16660029,"eccentricity":0.0002108,"inclination_deg":97.3848,"raan_deg":216.4032,"arg_perigee_deg":331.5599,"mean_anomaly_deg":28.5519,"bstar":0.00032294,"rev_number":11167,"period_min":94.945470472341,"perigee_km":514.49017918373,"apogee_km":517.39672350201,"semimajor_km":6894.0804513429,"source":"CELESTRAK","updated_at":"2026-05-25T13:38:01.684884Z"}}}